Regional Weather Roundup
Issued by NWS

Home | Current Version | Previous Version | Graphics & Text | Print | Product List | Glossary On
Versions: 1 2 3 4 5 6 7 8 9 10 11 12 13 14 15 16 17 18 19 20 21 22 23 24 25 26 27 28 29 30 31 32 33 34 35 36 37 38 39 40 41 42 43 44 45 46 47 48 49 50
000
ASUS43 KMKX 300700
RWRWI

WISCONSIN REGIONAL WEATHER ROUNDUP
NATIONAL WEATHER SERVICE MILWAUKEE/SULLIVAN WI
200 AM CDT THU MAR 30 2017

NOTE: "FAIR" INDICATES FEW OR NO CLOUDS BELOW 12,000 FEET WITH NO
SIGNIFICANT WEATHER AND/OR OBSTRUCTIONS TO VISIBILITY.

WIZ001-002-006>008-014>016-023>028-300800-
NORTHWEST WISCONSIN

CITY           SKY/WX    TMP DP  RH WIND       PRES   REMARKS
SUPERIOR ARPT  CLOUDY    33  32  94 NE8G16    30.16F WCI  26
ASHLAND        CLOUDY    30  28  92 CALM      30.13F
HAYWARD        CLOUDY    34  28  79 N3        30.09F
SIREN          CLOUDY    35  30  82 CALM      30.10S
CUMBERLAND     CLOUDY    37  32  81 E5        30.08F WCI  34
RICE LAKE      CLOUDY    40  33  77 E8        30.09F WCI  34
CHETEK         CLOUDY    38  33  82 E3        30.09F
LADYSMITH      CLOUDY    39  31  72 E6        30.11S WCI  35
EAU CLAIRE     NOT AVBL
MENOMONIE      LGT RAIN  39  36  89 NE8       30.07F WCI  34
NEW RICHMOND   DRIZZLE   39  35  84 E7        30.07F WCI  34
OSCEOLA        LGT RAIN  41  36  83 E6        30.10F
$$

WIZ003>005-009-010-017-018-300800-
NORTH CENTRAL WISCONSIN

CITY           SKY/WX    TMP DP  RH WIND       PRES   REMARKS
MANITOWISH WTR CLOUDY    36  23  61 SE8       30.10F WCI  29
ARBOR VITAE    CLOUDY    37  24  59 E10       30.10F WCI  29
WOODRUFF       CLOUDY    37  24  59 E10       30.10F WCI  29
RHINELANDER    CLOUDY    35  23  61 E8        30.10F WCI  29
EAGLE RIVER    CLOUDY    34  20  58 E6        30.12F WCI  29
LAND O LAKES   CLOUDY    35  24  64 SE5       30.14F WCI  31
PHILLIPS       CLOUDY    36  27  70 E3        30.09S
TOMAHAWK       CLOUDY    35  22  59 E5        30.11F WCI  31
MEDFORD        CLOUDY    33  28  79 E9        30.06F WCI  26
MERRILL        CLOUDY    35  26  67 E7        30.10F WCI  29
$$

WIZ029-030-035-036-043>047-300800-
CENTRAL WISCONSIN

CITY           SKY/WX    TMP DP  RH WIND       PRES   REMARKS
WAUSAU         CLOUDY    35  28  75 E8        30.07F WCI  29
MOSINEE        CLOUDY    32  32 100 E12       30.08F WCI  23
MARSHFIELD     CLOUDY    34  32  92 E13       30.05F WCI  25
STEVENS POINT  LGT RAIN  32  32 100 NE9       30.08F WCI  24
WAUPACA        LGT RAIN  37  35  92 NE8       30.09F WCI  30
WAUTOMA        CLOUDY    36  33  89 E10       30.07F WCI  28
WISC RAPIDS    FLURRIES  34  34 100 E7        30.07F WCI  28
CAMP DOUGLAS   NOT AVBL
$$

WIZ011>013-019>022-031-037>040-048>050-300800-
NORTHEAST WISCONSIN

CITY           SKY/WX    TMP DP  RH WIND       PRES   REMARKS
ANTIGO         CLOUDY    33  26  78 E7        30.10F WCI  26
SHAWANO        CLOUDY    37  31  78 NE8       30.12F WCI  30
OCONTO         CLOUDY    34  29  83 NE5       30.14F WCI  30
STURGEON BAY   CLOUDY    35  33  92 CALM      30.10F
GREEN BAY      LGT RAIN  35  34  96 NE8       30.12F WCI  29
MANITOWOC      NOT AVBL
APPLETON       DRIZZLE   34  34 100 E12       30.08F WCI  25
CLINTONVILLE   LGT RAIN  34  32  93 NE5       30.11F WCI  30
OSHKOSH        CLOUDY    37  34  89 E10       30.05F WCI  30
$$

WIZ032>034-041-042-053>061-300800-
SOUTHWEST WISCONSIN

CITY           SKY/WX    TMP DP  RH WIND       PRES   REMARKS
LA CROSSE      CLOUDY    39  35  86 NE5G16    30.02F
SPARTA         DRIZZLE   37  34  90 E12       30.05F WCI  29
VIROQUA        CLOUDY    35  33  94 E14G20    29.98F WCI  25
BOSCOBEL       LGT RAIN  40  32  73 NE12      29.98F WCI  33
PRAIRIE DU CHI RAIN      39  38  97 E10       29.96F WCI  32
PLATTEVILLE    CLOUDY    40  40 100 E17G28    29.94R WCI  31
$$

WIZ056-057-062-063-064-067-068-300800-
SOUTH CENTRAL WISCONSIN

CITY           SKY/WX    TMP DP  RH WIND       PRES   REMARKS
REEDSBURG      CLOUDY    36  33  92 E9        30.02F WCI  29
BARABOO/DELLS  CLOUDY    36  31  85 E14G20    30.02F WCI  27
LONE ROCK      LGT RAIN  39  35  86 E13G22    30.01R WCI  31
MINERAL POINT  LGT RAIN  39  39 100 E18G24    29.95R WCI  30
MADISON        LGT RAIN  38  36  92 E13       30.00F WCI  30
MIDDLETON      CLOUDY    38  38 100 E13G21    30.00F WCI  31
WATERTOWN      DRIZZLE   38  38 100 E13       29.99F WCI  30
MONROE         CLOUDY    37  37 100 NE16G23   29.95R WCI  28
JANESVILLE     CLOUDY    41  39  93 E17       29.95F
$$

WIZ051-052-058>065-066-070>072-300800-
SOUTHEAST WISCONSIN

CITY           SKY/WX    TMP DP  RH WIND       PRES   REMARKS
MILWAUKEE      CLOUDY    39  34  82 E18G28    30.02F WCI  30
WAUKESHA       CLOUDY    36  34  93 E16       30.02F WCI  26
MILWAUKEE/TIMM LGT RAIN  37  32  81 E10G20    30.04F WCI  30
RACINE         CLOUDY    39  34  82 E17G28    30.03F WCI  30
KENOSHA        CLOUDY    39  36  89 E18G26    30.00F WCI  30
FOND DU LAC    CLOUDY    39  33  79 E10       30.05F WCI  32
SHEBOYGAN      CLOUDY    38  32  79 E10       30.08F WCI  31
WEST BEND      CLOUDY    37  36  93 E14       30.05F WCI  29
JUNEAU         CLOUDY    37  35  91 NE13G21   30.03F WCI  29
$$

LSZ147-162-300800-
LAKE SUPERIOR

STATION/POSITION TIME  TEMP    WIND        PRES    WAVE
                       AIR SEA DIR/SP/G            HT/PER
                 (UTC) (F)     (DEG/KT/KT) (MB)    (FT/S)
DEVILS ISLAND    0600   34      70/ 13/ 14 1021.8F
PORT WING        0640   34      40/ 11/ 13 1021.0F
SAXON HARBOR     0640   31     180/  1/  3 1020.0F
$$

LMZ867-665-643>646-300800-
LAKE MICHIGAN

STATION/POSITION TIME  TEMP    WIND        PRES    WAVE
                       AIR SEA DIR/SP/G            HT/PER
                 (UTC) (F)     (DEG/KT/KT) (MB)    (FT/S)
CHAMBERS ISLAND  0640   34      20/  6/  7 1020.7F
NORTHPORT PIER   0640   36     100/ 10/ 12 1021.3F
SISTER BAY       0521   37     100/  5/ 10   N/A
KEWAUNEE LAKESHO 0630   38     120/  9/ 11 1019.9F
SHEBOYGAN LAKESH 0600   39     110/ 18/ 20 1019.8F
PORT WASHINGTON  0640   39      80/ 16/ 21 1018.6F
MILWAUKEE LAKESH 0630   38      80/ 21/ 24   N/A
KENOSHA   LAKESH 0600   39      70/ 24/ 29 1016.6
$$

TC  - TEMPERATURE IN CELSIUS
VSB - VISIBILITY IN STATUTE MILES
WCI - WIND CHILL INDEX
HX  - HEAT INDEX




USA.gov is the U.S. government's official web portal to all federal, state and local government web resources and services.